DW2489 Weather Reports


Display with metric or nautical units.
time (UTC)temp
F
wind
direction
speed
MPH
gust
MPH
rain 1hr
in
rain 24hr
in
rain mn
in
humidity
%
barometer
mb
20260831194026 78 171 1.0 3.0 0.00 0.00 0.00 1018.4
20260831193526 78 217 0.0 5.0 0.00 0.00 0.00 1018.5
20260831193026 78 215 1.0 8.0 0.00 0.00 0.00 1018.5
20260831192526 78 59 2.0 8.0 0.00 0.00 0.00 1018.7
20260831192026 78 79 0.0 6.0 0.00 0.00 0.00 1018.5
20260831191526 77 223 0.0 8.0 0.00 0.00 0.00 1018.6
20260831191027 77 99 0.0 8.0 0.00 0.00 0.00 1018.6
20260831190526 77 163 6.0 8.0 0.00 0.00 0.00 1018.8
20260831190026 77 167 2.0 5.0 0.00 0.00 0.00 1019.0
20260831185526 77 288 0.0 5.0 0.00 0.00 0.00 1019.1
20260831185026 77 170 1.0 5.0 0.00 0.00 0.00 1019.2
20260831184526 77 153 2.0 5.0 0.00 0.00 0.00 1019.2
20260831184027 77 153 0.0 5.0 0.00 0.00 0.00 1019.3
20260831183528 77 153 0.0 5.0 0.00 0.00 0.00 1019.2
20260831183026 76 128 0.0 3.0 0.00 0.00 0.00 1019.2
20260831182526 76 22 0.0 3.0 0.00 0.00 0.00 1019.2
20260831182026 76 90 0.0 8.0 0.00 0.00 0.00 1019.4
20260831181526 76 89 0.0 9.0 0.00 0.00 0.00 1019.4
20260831181056 76 81 2.0 9.0 0.00 0.00 0.00 1019.4
20260831180527 76 92 3.0 8.0 0.00 0.00 0.00 1019.4
20260831180026 76 95 2.0 5.0 0.00 0.00 0.00 1019.5
20260831175526 76 109 0.0 8.0 0.00 0.00 0.00 1019.6
20260831175026 76 127 2.0 8.0 0.00 0.00 0.00 1019.5
20260831174527 76 55 2.0 6.0 0.00 0.00 0.00 1019.6
20260831174026 75 92 2.0 6.0 0.00 0.00 0.00 1019.7
20260831173526 75 189 2.0 6.0 0.00 0.00 0.00 1019.7
20260831173041 75 159 0.0 5.0 0.00 0.00 0.00 1019.7
20260831172527 75 159 1.0 8.0 0.00 0.00 0.00 1019.8
20260831172026 75 109 1.0 8.0 0.00 0.00 0.00 1019.8
20260831171526 74 99 5.0 6.0 0.00 0.00 0.00 1019.7
20260831171041 75 159 2.0 11.0 0.00 0.00 0.00 1019.7
20260831170526 75 152 0.0 11.0 0.00 0.00 0.00 1019.8
20260831170042 75 72 5.0 11.0 0.00 0.00 0.00 1019.9
20260831165528 75 190 3.0 9.0 0.00 0.00 0.00 1019.8
20260831165127 75 140 1.0 9.0 0.00 0.00 0.00 1020.1
20260831164526 75 53 2.0 9.0 0.00 0.00 0.00 1020.2
20260831164026 75 128 5.0 13.0 0.00 0.00 0.00 1020.5
20260831163526 76 103 1.0 13.0 0.00 0.00 0.00 1020.5
20260831163026 76 58 0.0 13.0 0.00 0.00 0.00 1020.5
20260831162526 76 146 1.0 13.0 0.00 0.00 0.00 1020.6
20260831162026 76 110 1.0 8.0 0.00 0.00 0.00 1020.5
20260831161526 75 31 0.0 5.0 0.00 0.00 0.00 1020.9
20260831161026 75 31 3.0 11.0 0.00 0.00 0.00 1020.9
20260831160541 75 105 0.0 11.0 0.00 0.00 0.00 1020.8
20260831160026 74 192 0.0 9.0 0.00 0.00 0.00 1020.7
20260831155526 74 165 5.0 11.0 0.00 0.00 0.00 1021.0
20260831155041 74 78 2.0 11.0 0.00 0.00 0.00 1021.0
20260831154526 73 78 3.0 11.0 0.00 0.00 0.00 1021.0
20260831154026 73 179 0.0 9.0 0.00 0.00 0.00 1021.3
20260831153527 72 70 5.0 9.0 0.00 0.00 0.00 1021.1
20260831153026 72 327 0.0 6.0 0.00 0.00 0.00 1021.1
20260831152526 71 190 1.0 8.0 0.00 0.00 0.00 1021.2
20260831152026 70 64 1.0 9.0 0.00 0.00 0.00 1021.3
20260831151541 70 79 1.0 9.0 0.00 0.00 0.00 1021.3
20260831151026 69 155 2.0 9.0 0.00 0.00 0.00 1021.3
20260831150526 69 13 5.0 8.0 0.00 0.00 0.00 1021.2
20260831150026 68 78 3.0 8.0 0.00 0.00 0.00 1021.2
20260831145526 67 155 2.0 9.0 0.00 0.00 0.00 1021.2
20260831145026 67 145 2.0 11.0 0.00 0.00 0.00 1021.1
20260831144526 67 125 6.0 11.0 0.00 0.00 0.00 1021.2
20260831144027 67 94 0.0 8.0 0.00 0.00 0.00 1021.3
20260831143526 67 81 0.0 8.0 0.00 0.00 0.00 1021.4
20260831143041 67 39 0.0 6.0 0.00 0.00 0.00 1021.3
20260831142526 67 39 0.0 8.0 0.00 0.00 0.00 1021.3
20260831142026 67 39 0.0 9.0 0.00 0.00 0.00 1021.2
20260831141526 67 82 3.0 9.0 0.00 0.00 0.00 1021.3
20260831141026 67 18 2.0 6.0 0.00 0.00 0.00 1021.4
20260831140525 66 47 2.0 6.0 0.00 0.00 0.00 1021.2
20260831140026 66 100 3.0 8.0 0.00 0.00 0.00 1021.0
20260831135526 66 31 2.0 9.0 0.00 0.00 0.00 1021.1
20260831135026 66 82 3.0 9.0 0.00 0.00 0.00 1021.3
20260831134526 65 76 6.0 8.0 0.00 0.00 0.00 1021.2
20260831134026 65 131 0.0 8.0 0.00 0.00 0.00 1021.1
20260831133526 65 77 2.0 8.0 0.00 0.00 0.00 1021.1
20260831133026 65 89 0.0 5.0 0.00 0.00 0.00 1021.1
20260831132526 64 64 0.0 5.0 0.00 0.00 0.00 1021.2
20260831132026 64 56 1.0 6.0 0.00 0.00 0.00 1021.1
20260831131528 64 103 2.0 8.0 0.00 0.00 0.00 1021.2
20260831131026 64 104 2.0 8.0 0.00 0.00 0.00 1021.0
20260831130526 64 68 0.0 8.0 0.00 0.00 0.00 1021.1
20260831130026 64 21 2.0 6.0 0.00 0.00 0.00 1021.2
20260831125526 64 121 5.0 6.0 0.00 0.00 0.00 1021.2
20260831125026 64 63 2.0 6.0 0.00 0.00 0.00 1021.2
20260831124541 63 63 3.0 6.0 0.00 0.00 0.00 1021.2
20260831124025 63 107 0.0 5.0 0.00 0.00 0.00 1021.3
20260831123525 63 107 2.0 13.0 0.00 0.00 0.00 1021.2
20260831123026 63 101 0.0 13.0 0.00 0.00 0.00 1021.1
20260831122527 63 37 3.0 6.0 0.00 0.00 0.00 1021.0
20260831122025 63 83 1.0 8.0 0.00 0.00 0.00 1020.9
20260831121541 62 121 2.0 8.0 0.00 0.00 0.00 1020.8
20260831121027 62 127 2.0 6.0 0.00 0.00 0.00 1020.8
20260831120541 61 289 0.0 0.0 0.00 0.00 0.00 1020.9
20260831120025 61 289 0.0 0.0 0.00 0.00 0.00 1020.7
20260831115526 61 289 0.0 0.0 0.00 0.00 0.00 1020.8
20260831115026 60 289 0.0 0.0 0.00 0.00 0.00 1020.9
20260831114526 60 289 0.0 2.0 0.00 0.00 0.00 1020.8
20260831114026 60 289 0.0 2.0 0.00 0.00 0.00 1020.7
20260831113526 60 289 0.0 2.0 0.00 0.00 0.00 1020.7
20260831113026 59 289 0.0 3.0 0.00 0.00 0.00 1020.6
20260831112526 59 289 0.0 3.0 0.00 0.00 0.00 1020.6
20260831112026 58 289 1.0 3.0 0.00 0.00 0.00 1020.6
20260831111612 58 289 0.0 0.0 0.00 0.00 0.00 1020.4
20260831111027 58 289 0.0 0.0 0.00 0.00 0.00 1020.4
20260831110526 58 289 0.0 0.0 0.00 0.00 0.00 1020.3
20260831110040 58 289 0.0 0.0 0.00 0.00 0.00 1020.3
20260831105525 58 289 0.0 0.0 0.00 0.00 0.00 1020.3
20260831105026 58 289 0.0 0.0 0.00 0.00 0.00 1020.3
20260831104526 58 289 0.0 0.0 0.00 0.00 0.00 1020.0
20260831104026 58 289 0.0 0.0 0.00 0.00 0.00 1020.0
20260831103541 58 289 0.0 0.0 0.00 0.00 0.00 1020.0
20260831103041 58 289 0.0 0.0 0.00 0.00 0.00 1019.9
20260831102525 58 289 0.0 0.0 0.00 0.00 0.00 1020.1
20260831102027 58 289 0.0 0.0 0.00 0.00 0.00 1020.0
20260831101525 58 289 0.0 0.0 0.00 0.00 0.00 1019.9
20260831101027 58 289 0.0 0.0 0.00 0.00 0.00 1019.9
20260831100527 58 289 0.0 0.0 0.00 0.00 0.00 1019.9
20260831100026 58 289 0.0 0.0 0.00 0.00 0.00 1019.9
20260831095525 58 289 0.0 0.0 0.00 0.00 0.00 1019.8
20260831095026 58 289 0.0 0.0 0.00 0.00 0.00 1019.7
20260831094558 59 289 0.0 0.0 0.00 0.00 0.00 1019.6
20260831094025 59 289 0.0 0.0 0.00 0.00 0.00 1019.6
20260831093526 59 289 0.0 0.0 0.00 0.00 0.00 1019.7
20260831093025 59 289 0.0 0.0 0.00 0.00 0.00 1019.6
20260831092525 59 289 0.0 0.0 0.00 0.00 0.00 1019.7
20260831092112 59 289 0.0 0.0 0.00 0.00 0.00 1019.6
20260831091526 59 289 0.0 0.0 0.00 0.00 0.00 1019.6
20260831091027 59 289 0.0 0.0 0.00 0.00 0.00 1019.5
20260831090526 59 289 0.0 0.0 0.00 0.00 0.00 1019.6
20260831090026 59 289 0.0 0.0 0.00 0.00 0.00 1019.6
20260831085555 59 289 0.0 0.0 0.00 0.00 0.00 1019.6
20260831085025 59 289 0.0 0.0 0.00 0.00 0.00 1019.7
20260831084525 59 289 0.0 0.0 0.00 0.00 0.00 1019.6
20260831084041 59 289 0.0 0.0 0.00 0.00 0.00 1019.7
20260831083527 59 289 0.0 0.0 0.00 0.00 0.00 1019.5
20260831083055 59 289 0.0 0.0 0.00 0.00 0.00 1019.6
20260831082611 59 289 0.0 0.0 0.00 0.00 0.00 1019.5
20260831082025 59 289 0.0 0.0 0.00 0.00 0.00 1019.5
20260831081526 60 289 0.0 0.0 0.00 0.00 0.00 1019.4
20260831081026 60 289 0.0 0.0 0.00 0.00 0.00 1019.5
20260831080525 60 289 0.0 0.0 0.00 0.00 0.00 1019.4
20260831080025 60 289 0.0 0.0 0.00 0.00 0.00 1019.3
20260831075525 60 289 0.0 0.0 0.00 0.00 0.00 1019.4
20260831075025 60 289 0.0 0.0 0.00 0.00 0.00 1019.3
20260831074525 60 289 0.0 0.0 0.00 0.00 0.00 1019.5
20260831074041 60 289 0.0 0.0 0.00 0.00 0.00 1019.3
20260831073525 60 289 0.0 0.0 0.00 0.00 0.00 1019.4
20260831073055 61 289 0.0 0.0 0.00 0.00 0.00 1019.3
20260831072540 61 289 0.0 0.0 0.00 0.00 0.00 1019.3
20260831072040 61 289 0.0 0.0 0.00 0.00 0.00 1019.3
20260831071525 61 289 0.0 0.0 0.00 0.00 0.00 1019.2
20260831071025 61 289 0.0 0.0 0.00 0.00 0.00 1019.1
20260831070525 61 289 0.0 0.0 0.00 0.00 0.00 1019.2
20260831070040 61 289 0.0 0.0 0.00 0.00 0.00 1019.3
20260831065525 61 289 0.0 0.0 0.00 0.00 0.00 1019.3
20260831065026 61 289 0.0 0.0 0.00 0.00 0.00 1019.4
20260831064525 61 289 0.0 0.0 0.00 0.00 0.00 1019.4
20260831064025 61 289 0.0 0.0 0.00 0.00 0.00 1019.3
20260831063526 61 289 0.0 0.0 0.00 0.00 0.00 1019.3
20260831063025 61 289 0.0 0.0 0.00 0.00 0.00 1019.3
20260831062525 61 289 0.0 0.0 0.00 0.00 0.00 1019.3
20260831062025 61 289 0.0 0.0 0.00 0.00 0.00 1019.2
20260831061525 61 289 0.0 0.0 0.00 0.00 0.00 1019.1
20260831061025 61 289 0.0 0.0 0.00 0.00 0.00 1019.2
20260831060525 62 289 0.0 0.0 0.00 0.00 0.00 1019.2
20260831060040 62 289 0.0 0.0 0.00 0.00 0.00 1019.0
20260831055555 62 289 0.0 0.0 0.00 0.00 0.00 1019.0
20260831055025 62 289 0.0 0.0 0.00 0.00 0.00 1019.0
20260831054526 62 289 0.0 0.0 0.00 0.00 0.00 1019.1
20260831054026 62 289 0.0 0.0 0.00 0.00 0.00 1019.1
20260831053525 62 289 0.0 0.0 0.00 0.00 0.00 1019.1
20260831053025 62 289 0.0 0.0 0.00 0.00 0.00 1019.2
20260831052525 62 289 0.0 0.0 0.00 0.00 0.00 1019.2
20260831052025 62 289 0.0 0.0 0.00 0.00 0.00 1019.3
20260831051540 63 289 0.0 0.0 0.00 0.00 0.00 1019.3
20260831051025 63 289 0.0 0.0 0.00 0.00 0.00 1019.3
20260831050525 63 289 0.0 0.0 0.00 0.00 0.00 1019.2
20260831050025 63 289 0.0 0.0 0.00 0.00 0.00 1019.3
20260831045525 63 289 0.0 0.0 0.00 0.00 0.00 1019.3
20260831045025 63 289 0.0 0.0 0.00 0.00 0.00 1019.3
20260831044525 64 289 0.0 0.0 0.00 0.00 0.00 1019.3
20260831044026 64 289 0.0 0.0 0.00 0.00 0.00 1019.3
20260831043610 64 289 0.0 0.0 0.00 0.00 0.00 1019.3
20260831043025 64 289 0.0 0.0 0.00 0.00 0.00 1019.3
20260831042540 64 289 0.0 3.0 0.00 0.00 0.00 1019.4
20260831042040 64 289 0.0 3.0 0.00 0.00 0.00 1019.4
20260831041526 64 289 0.0 0.0 0.00 0.00 0.00 1019.3
20260831041056 64 289 0.0 0.0 0.00 0.00 0.00 1019.3
20260831040525 64 289 0.0 0.0 0.00 0.00 0.00 1019.3
20260831040025 65 289 0.0 0.0 0.00 0.00 0.00 1019.2
20260831035525 65 289 0.0 0.0 0.00 0.00 0.00 1019.4
20260831035025 65 289 0.0 0.0 0.00 0.00 0.00 1019.2
20260831034525 65 289 0.0 5.0 0.00 0.00 0.00 1019.3
20260831034026 65 289 0.0 6.0 0.00 0.00 0.00 1019.2
20260831033525 65 290 1.0 6.0 0.00 0.00 0.00 1019.1
20260831033040 65 280 3.0 6.0 0.00 0.00 0.00 1019.0
20260831032555 65 267 2.0 5.0 0.00 0.00 0.00 1019.1
20260831032025 65 266 1.0 3.0 0.00 0.00 0.00 1019.2
20260831031524 65 266 0.0 3.0 0.00 0.00 0.00 1019.2
20260831031026 65 266 0.0 3.0 0.00 0.00 0.00 1019.2
20260831030525 65 266 0.0 3.0 0.00 0.00 0.00 1019.3
20260831030025 65 267 1.0 3.0 0.00 0.00 0.00 1019.5
20260831025526 66 267 1.0 5.0 0.00 0.00 0.00 1019.5
20260831025025 66 271 1.0 5.0 0.00 0.00 0.00 1019.5
20260831024525 66 271 1.0 3.0 0.00 0.00 0.00 1019.4
20260831024025 66 271 0.0 0.0 0.00 0.00 0.00 1019.5
20260831023525 66 271 0.0 0.0 0.00 0.00 0.00 1019.5
20260831023025 66 271 0.0 0.0 0.00 0.00 0.00 1019.5
20260831022526 66 271 0.0 3.0 0.00 0.00 0.00 1019.4
20260831022025 67 271 0.0 3.0 0.00 0.00 0.00 1019.2
20260831021525 67 270 2.0 3.0 0.00 0.00 0.00 1019.3
20260831021025 67 271 1.0 3.0 0.00 0.00 0.00 1019.2
20260831020525 68 271 0.0 3.0 0.00 0.00 0.00 1019.3
20260831020025 68 271 1.0 3.0 0.00 0.00 0.00 1019.3
20260831015525 68 271 0.0 5.0 0.00 0.00 0.00 1019.2
20260831015055 68 271 0.0 5.0 0.00 0.00 0.00 1019.1
20260831014525 68 271 3.0 5.0 0.00 0.00 0.00 1019.1
20260831014039 68 271 0.0 5.0 0.00 0.00 0.00 1019.1
20260831013525 68 271 1.0 5.0 0.00 0.00 0.00 1019.3
20260831013025 68 271 1.0 8.0 0.00 0.00 0.00 1019.2
20260831012525 68 271 0.0 8.0 0.00 0.00 0.00 1019.0
20260831012025 68 285 2.0 5.0 0.00 0.00 0.00 1019.0
20260831011525 68 285 1.0 5.0 0.00 0.00 0.00 1018.9
20260831011025 68 285 0.0 8.0 0.00 0.00 0.00 1019.0
20260831010524 68 285 0.0 8.0 0.00 0.00 0.00 1018.8
20260831010025 68 292 3.0 8.0 0.00 0.00 0.00 1018.7
20260831005524 68 289 2.0 8.0 0.00 0.00 0.00 1018.7
20260831005025 69 275 0.0 5.0 0.00 0.00 0.00 1018.7
20260831004524 69 276 0.0 6.0 0.00 0.00 0.00 1018.6
20260831004054 69 276 1.0 6.0 0.00 0.00 0.00 1018.4
20260831003525 69 263 1.0 6.0 0.00 0.00 0.00 1018.4
20260831003039 69 234 1.0 6.0 0.00 0.00 0.00 1018.2
20260831002524 69 278 2.0 8.0 0.00 0.00 0.00 1018.2
20260831002040 69 256 2.0 8.0 0.00 0.00 0.00 1018.4
20260831001524 69 283 2.0 6.0 0.00 0.00 0.00 1018.5
20260831001055 69 283 0.0 3.0 0.00 0.00 0.00 1018.4
20260831000525 69 283 0.0 3.0 0.00 0.00 0.00 1018.3
20260831000055 69 283 0.0 3.0 0.00 0.00 0.00 1018.3
20260830235526 69 283 0.0 3.0 0.00 0.00 0.00 1018.3
20260830235025 69 283 0.0 8.0 0.00 0.00 0.00 1018.1
20260830234541 69 283 0.0 8.0 0.00 0.00 0.00 1017.9
20260830234025 69 284 2.0 6.0 0.00 0.00 0.00 1017.9
20260830233025 69 280 1.0 6.0 0.00 0.00 0.00 1017.9
20260830232555 69 296 0.0 5.0 0.00 0.00 0.00 1017.8
20260830232040 70 296 2.0 5.0 0.00 0.00 0.00 1017.9
20260830231524 70 287 0.0 3.0 0.00 0.00 0.00 1017.7
20260830231025 70 287 0.0 6.0 0.00 0.00 0.00 1017.7
20260830230525 70 286 1.0 6.0 0.00 0.00 0.00 1017.6
20260830230040 70 283 1.0 6.0 0.00 0.00 0.00 1017.6
20260830225524 70 269 2.0 6.0 0.00 0.00 0.00 1017.5
20260830225054 71 222 3.0 8.0 0.00 0.00 0.00 1017.7
20260830224525 71 265 0.0 8.0 0.00 0.00 0.00 1017.6
20260830224025 71 280 2.0 8.0 0.00 0.00 0.00 1017.5
20260830223525 71 263 2.0 9.0 0.00 0.00 0.00 1017.6
20260830223025 71 259 5.0 9.0 0.00 0.00 0.00 1017.7
20260830222524 71 264 0.0 13.0 0.00 0.00 0.00 1017.7
20260830222024 71 266 5.0 13.0 0.00 0.00 0.00 1017.9
20260830221524 71 251 0.0 9.0 0.00 0.00 0.00 1018.0
20260830221025 71 277 0.0 8.0 0.00 0.00 0.00 1017.9
20260830220539 71 270 2.0 8.0 0.00 0.00 0.00 1017.9
20260830220024 71 262 1.0 8.0 0.00 0.00 0.00 1017.7
20260830215524 71 272 2.0 11.0 0.00 0.00 0.00 1017.5
20260830215024 71 267 2.0 11.0 0.00 0.00 0.00 1017.5
20260830214525 72 277 3.0 11.0 0.00 0.00 0.00 1017.6
20260830214024 73 282 0.0 14.0 0.00 0.00 0.00 1017.7
20260830213539 73 240 3.0 14.0 0.00 0.00 0.00 1017.8
20260830213025 74 266 3.0 14.0 0.00 0.00 0.00 1017.8
20260830212524 74 291 2.0 14.0 0.00 0.00 0.00 1017.5
20260830212024 75 309 3.0 13.0 0.00 0.00 0.00 1017.4
20260830211524 75 300 5.0 13.0 0.00 0.00 0.00 1017.3
20260830211024 75 252 3.0 6.0 0.00 0.00 0.00 1017.2
20260830210525 75 278 1.0 8.0 0.00 0.00 0.00 1017.3
20260830210025 75 237 1.0 8.0 0.00 0.00 0.00 1017.2
20260830205525 75 297 0.0 5.0 0.00 0.00 0.00 1017.2
20260830205024 76 296 1.0 5.0 0.00 0.00 0.00 1017.2
20260830204525 76 305 0.0 5.0 0.00 0.00 0.00 1017.2
20260830204025 76 306 2.0 5.0 0.00 0.00 0.00 1017.3
20260830203540 76 87 0.0 2.0 0.00 0.00 0.00 1017.3
20260830203025 77 60 0.0 2.0 0.00 0.00 0.00 1017.3
20260830202526 77 36 1.0 3.0 0.00 0.00 0.00 1017.2
20260830202025 77 35 0.0 3.0 0.00 0.00 0.00 1017.2
20260830201526 78 39 0.0 5.0 0.00 0.00 0.00 1017.1
20260830201025 78 227 0.0 6.0 0.00 0.00 0.00 1017.2
20260830200524 78 277 0.0 6.0 0.00 0.00 0.00 1017.1
20260830200024 78 286 0.0 6.0 0.00 0.00 0.00 1017.2
20260830195524 78 254 1.0 8.0 0.00 0.00 0.00 1017.1
20260830195024 78 271 1.0 8.0 0.00 0.00 0.00 1017.1
20260830194524 78 204 0.0 5.0 0.00 0.00 0.00 1017.1